Flag for U.S.A. Weather past 2 weeks in Palestine, Texas, U.S.A.

Now
75 °F

Scattered clouds.


Feels Like: 78 °F
Forecast: 61 / 79 °F
Wind: 5 mph from Southeast

Location: Palestine Municipal Airport

Current Time: Apr 21, 2015 at 7:30:44 PM

Latest Report: Apr 21, 2015 at 6:55 PM


Visibility: 10 mi

Pressure: 29.93 "Hg

Humidity: 40%

Dew point: 49 °F

Location of PalestineLocation

Historic Weather in Palestine — Graph

°F

Palestine temperature yesterday

Maximum temperature yesterday: 74 °F (at 3:35 PM)
Minimum temperature yesterday: 47 °F (at 6:55 AM)
Average temperature yesterday: 62 °F

Past Weeks' High & Low Weather Summary

 TemperatureHumidityPressure
High88 °F (Apr 16, 3:15 PM)100% (Apr 14, 5:35 AM)30.19 "Hg (Apr 14, 5:35 AM)
Low47 °F (Apr 20, 6:55 AM)28% (Apr 20, 3:15 PM)29.71 "Hg (Apr 19, 3:55 PM)
Average68 °F78%29.97 "Hg
* Reported Apr 6 5:15 PM — Apr 21 5:55 PM, Palestine, Weather by CustomWeather, © 2015

Note: Actual official high and low records may vary slightly from our data, if they occured in-between our weather recording intervals... More about our weather records

Advertising

Palestine weather history for previous 24 hours

 ConditionsComfort  
Time TempWeatherWind HumidityBarometerVisibility
5:55 PM
Tue, Apr 21
79 °FOvercast.7 mph36%29.93 "Hg10 mi
5:35 PM80 °FOvercast.8 mph37%29.93 "Hg10 mi
5:15 PM79 °FOvercast.7 mph37%29.93 "Hg10 mi
4:55 PM79 °FOvercast.8 mph37%29.94 "Hg10 mi
4:15 PM80 °FOvercast.No wind34%29.95 "Hg10 mi
3:55 PM82 °FPartly sunny.6 mph35%29.96 "Hg10 mi
3:35 PM81 °FSunny.6 mph34%29.98 "Hg10 mi
3:15 PM80 °FScattered clouds.5 mph36%29.98 "Hg10 mi
2:55 PM79 °FScattered clouds.7 mph36%29.98 "Hg10 mi
2:35 PM77 °FScattered clouds.9 mph38%29.99 "Hg10 mi
2:15 PM76 °FScattered clouds.9 mph40%30.00 "Hg10 mi
1:55 PM76 °FScattered clouds.8 mph39%30.01 "Hg10 mi
1:35 PM76 °FScattered clouds.5 mph38%30.03 "Hg10 mi
1:15 PM75 °FScattered clouds.8 mph40%30.03 "Hg10 mi
12:55 PM74 °FBroken clouds.5 mph40%30.04 "Hg10 mi
12:35 PM74 °FPartly sunny.7 mph40%30.04 "Hg10 mi
12:15 PM73 °FPartly sunny.10 mph41%30.05 "Hg10 mi
11:55 AM73 °FScattered clouds.8 mph41%30.05 "Hg10 mi
11:35 AM71 °FBroken clouds.7 mph44%30.05 "Hg10 mi
11:15 AM71 °FBroken clouds.5 mph44%30.05 "Hg10 mi
10:55 AM70 °FPartly sunny.7 mph43%30.05 "Hg10 mi
10:35 AM68 °FPartly sunny.7 mph45%30.04 "Hg10 mi
10:15 AM67 °FPartly sunny.9 mph46%30.03 "Hg10 mi
9:55 AM67 °FScattered clouds.8 mph50%30.04 "Hg10 mi
9:35 AM64 °FScattered clouds.9 mph59%30.03 "Hg10 mi
9:15 AM62 °FPartly sunny.7 mph61%30.04 "Hg10 mi
8:55 AM61 °FOvercast.3 mph58%30.05 "Hg10 mi
8:35 AM59 °FOvercast.3 mph64%30.05 "Hg10 mi
8:15 AM59 °FOvercast.6 mph60%30.05 "Hg10 mi
7:55 AM59 °FOvercast.3 mph59%30.04 "Hg10 mi
7:15 AM58 °FPassing clouds.3 mph58%30.02 "Hg10 mi
6:55 AM59 °FPartly cloudy.3 mph56%30.01 "Hg10 mi
6:35 AM59 °FMostly cloudy.7 mph55%30.01 "Hg10 mi
6:15 AM59 °FMostly cloudy.6 mph57%30.01 "Hg10 mi
5:55 AM59 °FMostly cloudy.7 mph58%30.01 "Hg10 mi
5:35 AM58 °FMostly cloudy.5 mph58%30.01 "Hg10 mi
5:15 AM58 °FPassing clouds.5 mph59%30.00 "Hg10 mi
4:55 AM58 °FOvercast.5 mph62%30.01 "Hg10 mi
4:15 AM58 °FOvercast.No wind61%30.01 "Hg10 mi
3:55 AM58 °FOvercast.3 mph62%30.02 "Hg10 mi
3:35 AM58 °FPassing clouds.5 mph63%30.01 "Hg10 mi
3:15 AM58 °FPassing clouds.3 mph63%30.02 "Hg10 mi
2:55 AM58 °FOvercast.No wind62%30.03 "Hg10 mi
2:35 AM56 °FOvercast.No wind65%30.03 "Hg10 mi
2:15 AM55 °FPassing clouds.No wind64%30.03 "Hg10 mi
1:55 AM56 °FPassing clouds.No wind67%30.03 "Hg10 mi
1:35 AM55 °FPassing clouds.3 mph69%30.03 "Hg10 mi
1:15 AM56 °FOvercast.No wind74%30.04 "Hg10 mi
12:55 AM54 °FOvercast.No wind72%30.04 "Hg10 mi
12:15 AM53 °FPassing clouds.No wind78%30.03 "Hg10 mi
11:55 PM
Mon, Apr 20
53 °FPassing clouds.No wind81%30.03 "Hg10 mi
11:15 PM54 °FClear.No wind68%30.03 "Hg10 mi
10:15 PM55 °FClear.No wind61%30.01 "Hg10 mi
9:55 PM55 °FClear.No wind55%30.00 "Hg10 mi
9:35 PM56 °FClear.No wind70%30.00 "Hg10 mi
9:15 PM56 °FClear.No wind63%29.99 "Hg10 mi
8:55 PM57 °FClear.3 mph68%29.98 "Hg10 mi
8:35 PM59 °FSunny.No wind71%29.98 "Hg10 mi
8:15 PM61 °FSunny.No wind52%29.97 "Hg10 mi
7:55 PM63 °FSunny.No wind47%29.97 "Hg10 mi
7:35 PM65 °FSunny.No wind44%29.97 "Hg10 mi
7:15 PM67 °FSunny.No wind42%29.96 "Hg10 mi
Weather by CustomWeather, © 2015

See weather overviewHow to use our weather pages